Regional Weather Roundup
Issued by NWS Newport/Morehead, NC

Current Version | Previous Version | Graphics & Text | Print | Product List | Glossary On
Versions: 1 2 3 4 5 6 7 8 9 10 11 12 13 14 15 16 17 18 19 20 21 22 23 24 25 26 27 28 29 30 31 32 33 34 35 36 37 38 39 40 41 42 43 44 45 46 47 48 49 50
000 ASUS42 KMHX 181410 RWRMHX WEATHER ROUNDUP FOR EASTERN NORTH CAROLINA NATIONAL WEATHER SERVICE NEWPORT/MOREHEAD CITY NC 900 AM EST THU DEC 18 2014 NOTE: "FAIR" INDICATES FEW OR NO CLOUDS BELOW 12,000 FEET WITH NO SIGNIFICANT WEATHER AND/OR OBSTRUCTIONS TO VISIBILITY NCZ015>017-031-032-045>047-102-103-181500- NORTH COAST CITY SKY/WX TMP DP RH WIND PRES REMARKS EDENTON N/A 38 32 77 N5 30.18R ELIZABETH CITY SUNNY 43 30 60 N10 30.17R KITTY HAWK SUNNY 43 32 64 N7 30.14S MANTEO SUNNY 43 33 66 N9 30.16S $$ NCZ045>047-081-094-103-104-181500- CENTRAL COAST CITY SKY/WX TMP DP RH WIND PRES REMARKS FRISCO SUNNY 46 37 71 N8G17 30.15R SWANQUARTER N/A 43 N/A N/A N7 30.12S $$ NCZ095-097-098-100-101-181500- SOUTHERN COAST CITY SKY/WX TMP DP RH WIND PRES REMARKS BEAUFORT SUNNY 45 38 76 N12 30.16R CEDAR ISLAND N/A 45 N/A N/A N12 30.18S JACKSONVILLE SUNNY 44 34 67 NE8 30.17R PINEY ISLAND SUNNY 48 36 63 N9 30.16 WILMINGTON SUNNY 45 35 68 NE12 30.17R $$ NCZ011>013-027>030-043-044-078>080-089-090>093-098-181500- COASTAL PLAIN CITY SKY/WX TMP DP RH WIND PRES REMARKS AHOSKIE SUNNY 35 31 87 N3 30.19R CLINTON SUNNY 42 32 66 NE7 30.19R ELIZABETHTOWN MOSUNNY 42 35 76 CALM 30.18R GOLDSBORO MOSUNNY 41 37 86 NE7 30.18R GREENVILLE MOSUNNY 37 32 81 NE5 30.20R HAVELOCK MOSUNNY 44 34 67 NE9 30.17R KENANSVILLE SUNNY 41 33 73 N6 30.19R KINSTON MOSUNNY 41 34 75 N5 30.20R NEW BERN SUNNY 43 34 70 NE6 30.18S RICHLANDS SUNNY 41 32 70 N9 30.18R ROCKY MOUNT MOSUNNY 33 29 85 CALM 30.19R WASHINGTON SUNNY 39 31 71 NE6 30.18R WHITEVILLE PTSUNNY 43 33 68 N5 30.17R $$ AMZ130-135-150-152-154-156-158-170-250-252-270-ANZ085-086-088-633-658-670-181500- MARINE OBSERVATIONS STATION/POSITION TIME TEMP WIND PRES WAVE SWELL AIR SEA DIR/SP/G HT/PER HT/PER (UTC) (F) (DEG/KT/KT) (MB) (FT/S) (FT/S) CHESAPEAKE LIGHT 1300 41 350/ 20/ 21 1021.0 64 E VA BEACH 1400 44 54 340/ 17/ 21 1019.8 6/ 6 2/14 DUCK 1400 42 48 360/ 15/ 18 1020.1 2 E DUCK 1400 49 N/A 4/ 5 10 NE DUCK 1400 52 N/A 5/ 5 OREGON INLET 1400 45 51 350/ 10/ 15 1020.9 13E OREGON INLT 1400 53 N/A 4/ 5 HATTERAS CG 1400 45 55 10/ 15/ 18 1021.1 DIAMOND BUOY 1300 51 1019.9 3/ 4 17 S OCRACOKE NOT AVBL CAPE LOOKOUT 1300 45 360/ 12/ 14 1020.6 BEAUFORT LAB 1400 44 53 10/ 9/ 13 1020.0 30 SE NEW RIVER 1400 51 61 20/ 14/ 17 1021.2 3/ 4 2/ 7 5 SE WRIGHTSVLE 1300 47 55 40/ 17/ 21 1021.0 225 S CAPE HAT 1315 70 72 300/ 12/ 16 1019.5 4/ 7 3/ 7 41 SE CHARLESTON 1400 60 72 350/ 6/ 8 1020.6 1/10 2/10 $$

USA.gov is the U.S. government's official web portal to all federal, state and local government web resources and services.